Back to catalog

ONEWEB-0595

AliveCommunicationsPO
NORAD 54661·PAYLOAD·🇬🇧 United Kingdom

Launched Dec 8, 2022 from Cape Canaveral Space Force Station

Loading…

Next Passes (next 24 hours)

TLE

FreshSource: CelesTrak SupGP

Epoch: Sep 14, 2026, 17:39 UTC

1 54661C 22166V   26257.73593010  .00001513  00000+0  36686-2 0  2576
2 54661  87.9285 226.1522 0001910  79.6688 314.0902 13.21825222    16

Track ONEWEB-0595 in real time with AllMySat

Download on the App Store